Llagostera





Hora UTC 16:55
Temperatura 8.3 ºC
Humedad 80.0 %
Presión 1012.9 hPa
Pluja 0.2 mm
Velocidad viento 0.0 km/h
Dirección viento

Datos diarios 2021-12-04



Hora UTC (invierno +1h; verano +2h)
Temperatura (ºC) Humedad (%) Presión (hPa) Velocidad viento (km/h) Precipitación (mm)
Hora UTC Aire Humedad Presión Vel. Dir. Vel. Max Dir. Intent. máx 5 min.
00:05 0.8 94.0 1018.4 0.0 0.0 0.0
00:15 0.7 94.0 1018.0 0.0 6.4 0.0
00:25 0.8 95.0 1018.1 0.0 6.4 0.0
00:35 1.1 95.0 1018.1 1.6 6.4 0.0
00:45 1.1 95.0 1018.0 0.0 6.4 0.0
00:55 0.9 95.0 1017.8 0.0 6.4 0.0
01:05 0.8 95.0 1017.3 0.0 6.4 0.0
01:15 0.7 95.0 1017.3 1.6 6.4 0.0
01:25 0.7 95.0 1017.2 1.6 6.4 0.0
01:35 0.8 95.0 1017.7 0.0 6.4 0.0
01:45 0.8 95.0 1017.6 1.6 6.4 0.0
01:55 0.8 95.0 1017.3 1.6 6.4 0.0
02:05 0.8 95.0 1017.3 1.6 6.4 0.0
02:15 0.7 95.0 1017.4 1.6 6.4 0.0
02:25 0.6 95.0 1017.2 4.8 8.0 0.0
02:35 0.6 95.0 1017.2 3.2 8.0 0.0
02:45 0.6 95.0 1016.9 3.2 8.0 0.2
02:55 0.6 95.0 1016.8 1.6 8.0 0.0
03:05 0.7 95.0 1016.7 0.0 8.0 0.0
03:15 0.5 95.0 1016.6 0.0 8.0 0.0
03:25 0.3 95.0 1016.5 0.0 8.0 0.0
03:35 0.1 95.0 1016.5 0.0 8.0 0.0
03:45 0.0 95.0 1016.4 4.8 8.0 0.0
03:55 0.0 95.0 1016.4 0.0 8.0 0.0
04:05 0.2 95.0 1016.3 4.8 12.9 0.0
04:15 0.8 96.0 1016.1 8.0 14.5 0.0
04:25 0.7 95.0 1016.0 1.6 14.5 0.0
04:35 0.6 95.0 1016.0 0.0 14.5 0.0
04:45 0.4 95.0 1016.0 0.0 14.5 0.0
04:55 0.4 95.0 1015.9 0.0 14.5 0.0
05:05 0.3 95.0 1015.8 0.0 14.5 0.0
05:15 0.1 95.0 1015.8 3.2 14.5 0.0
05:25 0.0 95.0 1015.8 3.2 14.5 0.0
05:35 -0.2 95.0 1015.8 4.8 14.5 0.0
05:45 -0.1 95.0 1016.1 4.8 14.5 0.0
05:55 -0.1 95.0 1016.0 1.6 14.5 0.0
06:05 -0.2 95.0 1016.1 0.0 14.5 0.0
06:15 -0.2 95.0 1016.0 1.6 14.5 0.0
06:25 -0.2 95.0 1016.1 0.0 14.5 0.0
06:35 -0.2 95.0 1016.0 1.6 14.5 0.0
06:45 -0.3 95.0 1015.9 0.0 14.5 0.0
06:55 -0.5 95.0 1015.9 4.8 14.5 0.0
07:05 -0.5 95.0 1015.8 1.6 14.5 0.0
07:15 -0.4 95.0 1015.7 1.6 14.5 0.0
07:25 -0.4 95.0 1015.7 3.2 14.5 0.0
07:35 -0.3 95.0 1015.8 1.6 14.5 0.0
07:45 -0.1 95.0 1015.9 1.6 14.5 0.0
07:55 0.6 96.0 1015.8 6.4 14.5 0.0
08:05 1.3 96.0 1016.0 4.8 14.5 0.0
08:15 2.0 96.0 1015.8 3.2 14.5 0.0
08:25 2.6 96.0 1015.8 1.6 14.5 0.0
08:35 3.6 96.0 1015.9 0.0 14.5 0.0
08:45 4.5 96.0 1015.8 0.0 14.5 0.0
08:55 5.7 96.0 1015.4 1.6 14.5 0.0
09:05 7.0 95.0 1015.3 0.0 14.5 0.0
09:15 8.1 92.0 1015.1 1.6 14.5 0.0
09:25 9.0 89.0 1014.9 4.8 14.5 0.0
09:35 9.8 86.0 1014.9 3.2 14.5 0.0
09:45 10.1 83.0 1014.7 3.2 14.5 0.0
09:55 10.3 82.0 1014.8 4.8 14.5 0.0
10:05 10.8 81.0 1014.8 6.4 14.5 0.0
10:15 11.2 78.0 1014.7 8.0 16.1 0.0
10:25 11.6 77.0 1014.5 8.0 16.1 0.0
10:35 12.3 76.0 1014.3 8.0 16.1 0.0
10:45 12.7 75.0 1014.1 9.7 17.7 0.0
10:55 13.0 73.0 1013.7 6.4 17.7 0.0
11:05 13.4 73.0 1013.7 8.0 17.7 0.0
11:15 13.9 73.0 1013.6 6.4 17.7 0.0
11:25 14.2 68.0 1013.5 12.9 22.5 0.0
11:35 14.2 69.0 1013.7 11.3 22.5 0.0
11:45 14.3 71.0 1013.5 8.0 22.5 0.0
11:55 14.4 67.0 1013.1 6.4 22.5 0.0
12:05 14.7 68.0 1013.2 3.2 22.5 0.0
12:15 15.1 67.0 1013.1 6.4 22.5 0.0
12:25 15.4 66.0 1013.0 9.7 22.5 0.0
12:35 14.9 62.0 1013.1 12.9 22.5 0.0
12:45 14.4 63.0 1012.7 14.5 22.5 0.0
12:55 14.5 64.0 1012.4 11.3 22.5 0.0
13:05 14.6 63.0 1012.2 6.4 22.5 0.0
13:15 15.1 60.0 1011.7 3.2 22.5 0.0
13:25 15.6 60.0 1012.2 4.8 22.5 0.0
13:35 15.2 61.0 1012.5 9.7 22.5 0.0
13:45 15.0 61.0 1012.4 8.0 22.5 0.0
13:55 14.8 62.0 1012.4 8.0 22.5 0.0
14:05 14.6 62.0 1012.3 4.8 22.5 0.0
14:15 14.4 62.0 1011.9 4.8 22.5 0.0
14:25 14.1 65.0 1011.9 1.6 22.5 0.0
14:35 13.6 67.0 1012.3 6.4 22.5 0.0
14:45 13.2 66.0 1012.3 11.3 22.5 0.0
14:55 12.9 67.0 1011.8 3.2 22.5 0.0
15:05 12.6 69.0 1012.1 0.0 22.5 0.0
15:15 12.3 71.0 1012.2 0.0 22.5 0.0
15:25 12.0 72.0 1012.3 0.0 22.5 0.0
15:35 11.5 73.0 1012.4 0.0 22.5 0.0
15:45 11.1 74.0 1012.2 0.0 22.5 0.0
15:55 10.8 77.0 1012.3 0.0 22.5 0.0
16:05 10.5 76.0 1012.4 0.0 22.5 0.0
16:15 10.1 77.0 1012.5 0.0 22.5 0.0
16:25 9.6 78.0 1012.6 0.0 22.5 0.0
16:35 9.3 78.0 1012.6 0.0 22.5 0.0
16:45 8.7 79.0 1012.7 0.0 22.5 0.0
16:55 8.3 80.0 1012.9 0.0 22.5 0.0
Máxima 15.6 96.0 1018.4 14.5 22.5 0.2
Mínima -0.6 60.0 1011.7
Total 0.2